Temp
31 33 32 33 33 31 27 29 26 26 27 34 38 40 42 42 43 43 43 44 44 44 44 45 45 45 45 45 45 45 44 43 43 44 44 44 44 45 45 44 45 44 43 43
28 32 31 31 32 32 33 33 32 34 33 42 43 41 41 42 42 41 42 44 44 45 45 46 46 45 45 45 45 44 43 43 44 43 44 43 43 43 42 42 43 42 42 42
24 28 30 27 32 33 32 33 35 30 37 40 40 41 41 42 41 42 43 44 45 45 44 44 44 45 44 44 44 43 42 42 42 42 42 42 42 42 41 40 41 40 40 41
22 25 20 31 35 37 35 35 36 36 37 38 40 41 41 40 38 42 42 44 45 43 44 44 44 43 43 43 43 42 42 41 41 41 41 41 40 39 39 39 39 39 39 40
22 19 27 30 32 33 33 31 36 35 36 38 39 37 40 42 41 42 42 43 43 43 42 42 42 44 42 41 41 41 41 41 41 41 40 40 39 38 38 37 37 37 39 39
23 19 20 29 34 37 36 29 36 38 36 37 38 31 34 42 43 44 43 42 43 45 43 41 43 42 40 40 39 40 41 42 42 41 40 39 39 38 37 37 38 38 38 37
25 22 25 34 37 38 27 31 37 38 36 36 35 38 41 41 41 42 42 42 43 42 41 41 43 40 39 39 39 42 41 41 40 40 39 38 38 37 37 36 36 35 36 36
27 21 20 37 36 32 38 38 38 38 37 38 39 39 40 40 40 41 40 42 42 41 41 42 41 38 38 38 42 41 40 40 39 39 39 40 37 36 35 34 33 33 33 34
29 29 38 37 37 42 43 42 38 37 38 38 38 38 39 39 40 40 40 40 41 40 41 42 40 38 37 41 40 40 39 39 38 38 37 37 35 35 34 33 32 33 33 32
32 35 35 39 39 40 40 40 41 39 38 38 36 38 37 38 39 39 40 39 40 38 38 38 41 40 38 40 40 38 37 37 37 36 37 36 36 35 33 33 33 33 32 32
32 37 35 36 37 37 39 39 38 38 37 37 36 37 36 37 38 39 39 39 39 37 37 37 39 39 39 39 37 37 37 36 35 35 34 34 35 34 33 34 36 35 34 34
32 38 38 36 35 35 35 35 36 35 35 36 36 36 36 37 38 38 38 40 39 39 38 38 38 38 38 38 37 36 35 36 35 35 34 34 33 34 40 42 42 42 43 40
36 36 39 38 37 36 35 35 36 35 35 35 36 35 35 35 36 40 37 37 37 37 38 38 38 38 40 39 38 37 35 35 35 36 33 33 32 32 32 36 41 42 42 43
38 38 36 36 34 37 37 38 38 37 37 36 36 36 35 34 35 35 35 37 37 37 37 37 37 38 40 38 36 35 35 39 34 33 32 32 31 32 31 31 31 32 38 40
36 37 35 36 35 36 36 36 36 36 36 35 35 34 33 33 34 35 36 36 36 35 35 36 36 38 39 36 35 34 34 33 33 32 32 33 32 31 31 31 30 30 32 36
34 35 35 34 35 36 36 36 34 35 35 35 34 34 35 34 33 34 35 34 31 34 35 35 36 38 38 35 34 34 34 37 38 33 32 32 31 31 31 31 30 30 30 31
34 34 33 33 35 35 34 35 34 33 33 32 32 34 33 33 32 32 34 35 33 34 35 34 35 37 37 35 34 36 35 34 38 34 33 34 32 32 32 31 31 31 32 33
33 34 33 32 31 31 32 33 33 32 32 33 32 32 30 30 31 32 33 34 33 33 34 36 35 35 36 36 35 36 35 35 35 35 34 34 35 35 34 33 33 32 33 33
33 33 32 32 32 32 31 32 32 32 32 32 30 30 31 32 31 32 33 31 31 31 36 37 38 37 35 36 38 36 33 33 34 33 33 36 34 33 32 32 32 32 32 32
33 32 32 32 33 32 31 32 31 30 32 31 31 30 30 32 32 31 32 30 32 33 36 36 36 35 35 35 39 37 35 33 32 33 33 32 32 32 31 32 32 31 32 33
31 31 31 30 31 31 32 32 30 30 32 32 30 30 31 31 32 30 28 29 35 36 34 37 36 36 36 37 38 38 36 34 33 33 32 32 32 32 31 31 33 33 33 33
29 29 30 30 29 30 32 31 30 30 30 30 30 29 28 28 29 29 31 30 35 38 36 35 35 36 36 39 38 37 37 36 35 35 33 32 32 32 33 33 33 34 34 33
28 28 30 30 29 30 30 29 29 30 30 30 30 30 29 31 32 29 30 35 35 36 36 35 37 39 39 38 38 37 36 36 35 35 35 34 34 33 33 33 34 34 33 33
28 29 29 31 30 27 26 31 31 31 30 31 31 31 30 29 31 33 32 36 37 36 35 36 37 39 40 38 37 37 36 35 35 35 35 35 34 34 34 34 33 33 33 33
29 29 29 27 27 28 29 31 29 29 29 28 29 30 30 31 30 34 34 33 36 35 32 36 38 39 37 36 37 36 35 35 34 34 34 34 34 34 33 33 32 32 32 31
29 31 32 32 32 32 33 32 29 31 30 29 31 32 32 32 30 32 32 33 32 34 33 33 36 36 36 36 35 35 35 34 34 34 34 33 33 32 31 31 31 30 30 31
29 34 30 29 30 30 30 29 28 28 31 30 30 33 33 33 32 34 35 33 32 32 32 33 35 36 36 36 34 34 34 34 34 33 32 32 31 31 31 29 29 29 30 29
MSLP
1025.19 1025.06 1025.03 1024.98 1025.15 1025.65 1026.17 1025.87 1025.92 1024.74 1024.01 1022.85 1022.11 1021.96 1021.57 1021.41 1021.24 1020.95 1020.59 1020.17 1019.90 1019.61 1019.13 1018.61 1018.24 1017.79 1017.38 1017.05 1016.73 1016.56 1016.53 1016.55 1016.37 1016.26 1016.43 1016.63 1016.67 1016.70 1016.83 1016.94 1016.80 1016.75 1016.63 1016.56
1025.24 1024.82 1024.79 1024.54 1024.27 1024.44 1024.61 1024.64 1024.37 1023.98 1022.61 1022.00 1021.51 1021.54 1021.46 1021.22 1021.16 1021.03 1020.78 1020.40 1020.00 1019.48 1018.96 1018.55 1018.17 1017.79 1017.30 1016.91 1016.52 1016.27 1016.20 1016.07 1015.91 1015.93 1015.97 1016.08 1016.13 1016.29 1016.40 1016.40 1016.30 1016.25 1016.25 1016.20
1025.59 1025.07 1024.44 1023.51 1022.05 1022.37 1022.69 1022.70 1022.77 1023.06 1021.65 1021.43 1021.46 1021.44 1021.18 1020.94 1021.00 1020.93 1020.71 1020.24 1019.78 1019.41 1018.91 1018.38 1017.90 1017.46 1017.17 1016.64 1016.29 1016.07 1015.83 1015.59 1015.51 1015.59 1015.62 1015.51 1015.53 1015.78 1015.89 1015.91 1015.84 1015.87 1015.84 1015.77
1026.19 1025.39 1024.27 1021.63 1021.04 1021.06 1021.42 1021.44 1021.58 1021.40 1021.26 1021.23 1021.23 1021.04 1020.82 1020.69 1020.68 1020.56 1020.28 1020.00 1019.56 1019.09 1018.55 1018.02 1017.42 1017.04 1016.68 1016.28 1015.98 1015.76 1015.41 1015.22 1015.13 1015.11 1015.15 1015.18 1015.32 1015.37 1015.37 1015.36 1015.38 1015.41 1015.29 1015.19
1026.52 1025.94 1023.45 1021.20 1020.73 1020.59 1020.59 1020.98 1020.84 1020.98 1020.89 1020.98 1020.96 1020.98 1020.72 1020.28 1020.36 1020.37 1020.23 1019.77 1019.37 1018.89 1018.35 1017.78 1017.34 1016.77 1016.43 1015.91 1015.58 1015.40 1015.08 1014.88 1014.55 1014.56 1014.55 1014.61 1014.78 1014.77 1014.80 1014.89 1014.84 1014.77 1014.58 1014.57
1026.85 1026.05 1023.66 1021.09 1020.27 1019.96 1020.00 1020.56 1020.44 1020.60 1020.86 1021.08 1021.20 1021.52 1021.22 1020.66 1020.63 1020.21 1019.92 1019.57 1019.12 1018.55 1018.19 1017.78 1017.07 1016.60 1016.30 1015.77 1015.43 1015.00 1014.54 1014.33 1014.04 1013.99 1014.02 1014.02 1014.02 1014.08 1014.00 1014.05 1014.00 1013.98 1013.93 1013.80
1026.45 1025.62 1022.83 1020.72 1020.11 1019.93 1020.40 1020.88 1020.37 1020.61 1020.99 1021.24 1021.67 1021.55 1021.04 1020.90 1020.63 1020.39 1020.01 1019.50 1019.05 1018.66 1018.29 1017.67 1016.98 1016.51 1016.17 1015.61 1015.13 1014.32 1014.04 1013.78 1013.76 1013.70 1013.74 1013.55 1013.52 1013.53 1013.50 1013.55 1013.58 1013.54 1013.44 1013.16
1026.16 1025.38 1022.69 1020.63 1020.51 1020.53 1020.60 1020.49 1020.68 1020.91 1021.10 1021.35 1021.47 1021.32 1021.16 1021.01 1020.72 1020.29 1019.84 1019.24 1018.86 1018.50 1017.86 1017.25 1016.79 1016.47 1016.00 1015.50 1014.66 1014.18 1013.74 1013.46 1013.27 1013.16 1013.19 1013.08 1013.19 1013.00 1013.04 1013.11 1013.12 1013.09 1013.06 1012.87
1023.97 1022.46 1021.05 1020.87 1020.68 1020.44 1020.56 1020.85 1021.04 1021.18 1021.33 1021.53 1021.61 1021.48 1021.37 1021.15 1020.79 1020.38 1020.00 1019.48 1018.93 1018.51 1017.78 1017.03 1016.59 1016.30 1015.98 1015.02 1014.42 1014.00 1013.78 1013.50 1013.20 1012.97 1012.80 1012.62 1012.69 1012.61 1012.66 1012.57 1012.63 1012.49 1012.52 1012.38
1022.70 1021.62 1021.36 1020.95 1021.14 1021.09 1021.19 1021.28 1021.49 1021.67 1021.81 1021.89 1022.06 1021.87 1021.67 1021.28 1020.77 1020.28 1019.78 1019.34 1018.88 1018.42 1017.81 1017.11 1016.53 1016.07 1015.54 1014.80 1014.26 1013.96 1013.51 1013.20 1012.98 1012.83 1012.51 1012.32 1012.17 1012.07 1011.99 1011.99 1012.01 1011.96 1011.95 1011.77
1022.04 1021.28 1021.57 1021.59 1021.66 1021.92 1021.97 1021.99 1022.08 1022.23 1022.33 1022.35 1022.27 1022.07 1021.85 1021.45 1020.89 1020.36 1019.85 1019.26 1018.87 1018.49 1017.83 1017.12 1016.43 1015.83 1015.13 1014.54 1014.12 1013.68 1013.29 1013.02 1012.81 1012.58 1012.38 1012.14 1011.93 1011.80 1011.52 1011.17 1010.96 1010.82 1010.75 1010.81
1021.73 1021.48 1021.37 1021.65 1022.14 1022.42 1022.58 1022.75 1022.76 1022.67 1022.58 1022.44 1022.30 1022.13 1021.83 1021.51 1021.11 1020.69 1020.00 1019.32 1018.74 1018.30 1017.78 1016.92 1016.29 1015.56 1014.79 1014.23 1013.90 1013.58 1013.24 1012.85 1012.63 1012.49 1012.30 1012.04 1011.76 1011.31 1010.90 1010.68 1010.41 1010.23 1010.04 1010.00
1021.81 1021.69 1021.76 1021.99 1022.31 1022.41 1022.47 1022.66 1022.68 1022.68 1022.66 1022.61 1022.30 1022.18 1021.93 1021.53 1021.03 1020.61 1020.13 1019.65 1019.14 1018.60 1017.90 1017.08 1016.24 1015.46 1014.61 1014.03 1013.61 1013.29 1013.06 1012.66 1012.41 1012.24 1012.08 1012.02 1011.80 1011.63 1011.22 1010.40 1010.24 1009.87 1009.61 1009.44
1022.18 1022.06 1022.38 1022.56 1022.79 1022.88 1022.83 1022.61 1022.59 1022.62 1022.48 1022.38 1022.25 1021.98 1021.72 1021.42 1020.74 1020.37 1019.88 1019.32 1018.72 1018.14 1017.48 1016.84 1016.11 1015.17 1014.38 1013.97 1013.56 1013.17 1012.80 1012.44 1012.22 1012.01 1011.91 1011.77 1011.67 1011.49 1011.31 1011.10 1010.60 1010.22 1009.69 1009.53
1022.60 1022.58 1022.74 1022.83 1022.85 1022.84 1022.71 1022.62 1022.53 1022.40 1022.26 1022.16 1022.08 1022.01 1021.75 1021.37 1020.84 1020.16 1019.52 1019.04 1018.43 1017.86 1017.18 1016.50 1015.74 1014.71 1014.04 1013.74 1013.48 1012.99 1012.58 1012.20 1011.94 1011.65 1011.47 1011.32 1011.22 1011.07 1010.91 1010.70 1010.52 1010.19 1009.75 1009.10
1022.88 1022.89 1022.86 1022.96 1022.88 1022.73 1022.61 1022.56 1022.62 1022.44 1022.33 1022.27 1022.03 1021.57 1021.30 1021.04 1020.48 1019.72 1019.03 1018.63 1018.43 1017.62 1016.93 1016.28 1015.32 1014.51 1013.90 1013.46 1013.29 1012.78 1012.19 1011.87 1011.65 1011.34 1011.08 1010.87 1010.73 1010.69 1010.49 1010.31 1010.06 1009.69 1009.40 1009.06
1022.88 1023.05 1023.02 1023.03 1023.02 1022.99 1022.98 1022.90 1022.78 1022.56 1022.33 1022.12 1021.74 1021.27 1020.84 1020.47 1020.01 1019.41 1018.60 1018.04 1017.61 1017.09 1016.66 1016.05 1015.11 1014.32 1013.90 1013.42 1013.00 1012.58 1012.31 1011.60 1010.99 1010.69 1010.46 1010.26 1010.18 1010.10 1009.90 1009.74 1009.45 1009.04 1008.58 1008.26
1023.02 1023.09 1023.18 1023.30 1023.25 1023.06 1022.75 1022.54 1022.43 1022.22 1021.96 1021.53 1021.20 1020.85 1020.39 1019.95 1019.46 1018.82 1018.14 1017.48 1016.88 1016.21 1015.87 1015.07 1014.61 1014.10 1013.54 1013.03 1012.52 1012.03 1011.64 1011.24 1010.93 1010.67 1010.25 1009.86 1009.41 1009.11 1008.92 1008.72 1008.47 1008.14 1007.70 1007.36
1023.17 1023.17 1023.09 1023.01 1022.88 1022.69 1022.46 1022.20 1021.98 1021.68 1021.35 1021.01 1020.85 1020.45 1019.92 1019.32 1018.79 1018.30 1017.75 1017.31 1016.63 1015.88 1014.50 1014.03 1013.79 1013.46 1012.98 1012.42 1011.99 1011.50 1011.03 1010.53 1010.07 1009.74 1009.53 1009.22 1008.83 1008.52 1008.29 1008.04 1007.70 1007.32 1007.03 1006.79
1023.07 1022.98 1022.85 1022.66 1022.41 1022.28 1022.02 1021.64 1021.34 1021.05 1020.54 1020.33 1020.09 1019.77 1019.22 1018.55 1018.18 1017.81 1017.31 1016.83 1015.93 1015.22 1014.27 1013.66 1013.17 1012.68 1012.07 1011.62 1011.21 1010.74 1010.37 1009.97 1009.54 1008.99 1008.47 1008.14 1008.12 1007.83 1007.51 1007.26 1006.96 1006.72 1006.45 1006.09
1022.83 1022.58 1022.46 1022.29 1021.97 1021.59 1021.24 1020.87 1020.75 1020.34 1019.77 1019.60 1019.52 1019.03 1018.53 1017.91 1017.44 1017.13 1016.75 1016.03 1014.33 1013.90 1013.67 1013.16 1012.60 1011.92 1011.46 1010.90 1010.35 1009.94 1009.69 1009.27 1008.88 1008.44 1008.00 1007.59 1007.09 1006.79 1006.58 1006.36 1006.14 1005.90 1005.63 1005.40
1022.22 1022.13 1021.89 1021.64 1021.36 1020.84 1020.35 1020.04 1019.83 1019.54 1019.23 1018.78 1018.35 1018.04 1017.74 1017.16 1016.64 1016.07 1015.46 1015.20 1013.89 1013.15 1012.88 1012.37 1011.80 1011.27 1010.80 1010.23 1009.67 1009.14 1008.71 1008.42 1008.02 1007.58 1007.10 1006.73 1006.33 1005.91 1005.50 1005.31 1005.25 1005.06 1004.87 1004.67
1021.79 1021.56 1021.29 1020.98 1020.55 1020.01 1019.52 1019.30 1018.87 1018.50 1018.15 1017.66 1017.36 1016.96 1016.68 1016.05 1015.65 1015.52 1014.48 1013.29 1013.10 1012.64 1012.14 1011.54 1010.99 1010.43 1009.87 1009.36 1008.76 1008.22 1007.80 1007.41 1007.01 1006.57 1006.16 1005.74 1005.31 1004.96 1004.75 1004.49 1004.28 1004.23 1004.13 1004.02
1021.13 1020.80 1020.35 1019.81 1019.56 1019.36 1018.93 1017.91 1017.61 1017.30 1016.97 1016.47 1016.13 1015.66 1015.52 1015.16 1014.36 1013.84 1013.41 1012.71 1012.27 1011.99 1011.42 1010.61 1010.02 1009.42 1008.91 1008.41 1007.79 1007.27 1006.83 1006.42 1005.94 1005.50 1005.13 1004.78 1004.45 1004.21 1004.03 1003.80 1003.57 1003.50 1003.48 1003.47
1020.25 1019.79 1019.40 1019.04 1018.74 1018.15 1017.58 1016.88 1016.70 1016.23 1015.81 1015.40 1014.90 1014.42 1014.04 1013.73 1013.70 1012.67 1012.38 1011.94 1011.32 1011.11 1010.71 1009.83 1009.06 1008.53 1008.12 1007.63 1007.05 1006.47 1005.90 1005.43 1004.95 1004.54 1004.18 1003.88 1003.63 1003.44 1003.30 1003.17 1003.03 1003.01 1002.96 1002.94
1019.06 1018.68 1018.25 1017.75 1017.37 1016.95 1016.44 1016.20 1016.12 1015.47 1015.10 1014.65 1014.03 1013.46 1012.93 1012.55 1012.29 1011.95 1011.68 1011.24 1010.78 1010.14 1009.68 1009.10 1008.39 1007.81 1007.34 1006.83 1006.22 1005.57 1004.96 1004.47 1004.04 1003.66 1003.40 1003.20 1003.03 1002.87 1002.81 1002.72 1002.65 1002.63 1002.61 1002.50
1017.71 1017.35 1017.17 1016.70 1016.15 1015.87 1015.64 1015.46 1015.25 1014.70 1014.18 1013.93 1013.44 1012.55 1012.16 1011.79 1011.43 1011.14 1010.75 1010.30 1009.92 1009.46 1008.89 1008.22 1007.59 1006.98 1006.47 1005.84 1005.27 1004.70 1004.16 1003.68 1003.34 1003.13 1002.97 1002.81 1002.62 1002.46 1002.41 1002.41 1002.36 1002.31 1002.19 1002.08
Wind_Speed
4 6 3 5 5 9 10 6 8 4 8 6 7 6 8 7 8 9 9 9 8 8 7 7 8 7 7 6 7 5 6 6 8 6 6 6 6 6 5 6 6 6 6 6
4 3 5 8 9 10 13 9 12 13 22 8 8 5 6 8 5 6 7 7 8 8 8 8 8 7 7 7 7 4 5 7 6 6 6 6 6 6 6 7 6 6 6 6
5 4 6 8 10 15 6 6 10 11 10 6 7 7 6 6 5 5 7 7 8 8 8 9 9 7 8 8 6 6 6 6 6 6 6 6 6 6 7 7 5 6 7 6
3 5 3 5 3 5 11 4 9 5 4 2 5 6 8 6 5 7 7 10 11 8 9 9 7 8 7 7 7 7 7 7 6 6 7 6 6 7 7 5 6 6 7 7
1 3 8 0 2 5 6 2 4 5 2 3 3 4 6 2 2 5 8 9 8 9 8 8 9 10 7 8 7 7 8 7 7 6 7 6 7 7 6 5 5 6 6 7
2 2 6 3 1 1 2 2 0 4 1 4 4 4 5 6 7 12 9 8 10 12 9 8 10 7 7 9 7 8 7 8 7 6 7 7 7 7 5 6 7 5 7 7
4 4 9 7 5 1 5 6 2 2 1 2 1 6 6 9 8 7 8 11 10 9 9 10 10 7 9 8 8 8 6 6 6 6 6 7 6 4 5 6 5 6 7 6
5 4 9 5 2 1 2 2 2 1 1 4 6 7 7 8 9 11 12 12 11 10 11 10 9 6 9 9 10 7 6 6 6 6 5 4 6 6 5 5 6 6 5 6
9 7 3 1 1 3 3 2 1 2 2 4 5 5 7 7 8 10 11 10 9 9 12 11 8 7 9 11 8 7 6 7 6 6 6 5 5 6 4 4 4 5 5 5
1 1 3 4 2 3 2 1 3 4 4 5 5 7 7 7 8 9 9 9 8 9 10 12 11 9 8 11 9 7 7 7 6 6 7 5 4 4 4 4 4 5 4 5
5 3 5 4 4 4 5 4 5 5 3 5 5 6 5 7 9 9 10 11 9 9 11 13 11 11 10 9 7 7 6 6 6 4 5 5 4 4 4 5 6 4 5 5
4 1 2 3 4 1 3 4 4 4 5 5 3 6 6 7 8 9 12 13 13 12 11 13 12 12 11 8 6 6 6 5 4 4 4 4 4 5 6 11 13 12 14 10
2 1 1 4 5 3 2 2 4 3 2 4 5 4 4 5 5 11 8 9 8 11 12 13 13 13 12 9 6 6 6 5 4 4 4 4 3 4 5 4 7 9 8 8
3 1 3 4 1 3 2 3 4 4 5 5 4 4 5 7 10 8 8 11 11 10 12 12 12 14 12 9 7 7 6 9 4 4 4 4 4 4 3 4 5 5 5 8
5 5 3 2 1 3 3 3 5 6 6 7 5 6 6 9 10 11 10 9 11 10 8 9 11 15 10 8 8 7 5 5 4 4 4 5 4 4 4 4 4 4 5 5
2 4 4 3 4 5 4 5 5 7 7 8 8 9 9 8 10 11 11 7 7 12 14 14 14 13 11 7 8 6 5 10 8 4 4 4 4 4 4 4 5 5 4 4
3 2 2 4 4 5 4 5 6 7 8 7 8 8 9 10 10 9 11 10 8 10 10 12 15 12 10 7 7 7 7 6 10 5 5 5 4 5 5 5 6 6 7 6
4 4 4 5 6 7 8 6 6 7 7 8 8 8 8 8 10 13 13 12 12 12 8 11 9 9 10 8 8 7 6 7 6 7 6 6 7 6 6 6 7 7 7 6
4 7 7 7 7 7 7 8 7 7 8 8 7 10 10 11 10 11 11 10 12 12 15 10 12 11 10 10 11 7 6 7 7 6 7 11 8 6 6 6 7 7 7 7
7 6 7 7 7 6 8 8 8 8 10 7 8 9 11 11 9 10 10 12 14 11 13 14 13 11 9 9 15 8 8 8 8 8 6 6 7 8 6 10 9 7 7 7
8 8 8 8 9 9 8 9 8 10 11 8 8 11 12 12 11 9 9 9 17 11 10 15 12 10 8 12 11 9 9 9 9 9 8 8 7 7 7 7 7 7 7 6
7 7 9 9 9 11 11 9 8 9 10 11 11 10 9 12 10 9 9 10 12 22 11 9 9 13 12 20 11 10 10 10 10 9 9 8 8 7 7 6 7 7 7 7
9 8 10 10 11 11 10 8 10 11 12 12 11 11 10 9 8 8 11 11 7 12 11 11 17 24 26 14 12 10 10 11 10 10 10 9 8 7 7 6 7 6 6 6
9 10 12 12 8 7 11 15 10 10 10 12 12 12 9 7 9 7 8 16 20 17 12 15 18 24 25 13 13 10 10 10 10 10 10 13 8 7 7 7 6 5 5 6
9 12 11 10 10 10 11 13 10 10 10 10 11 11 10 8 9 10 9 10 19 15 11 19 24 24 11 10 13 13 11 10 10 10 9 8 7 6 6 4 4 4 5 4
11 9 9 12 10 10 10 8 8 9 7 8 8 8 8 6 6 9 8 12 11 15 10 10 11 12 11 11 12 13 11 10 10 9 8 6 6 5 5 5 4 3 4 5
8 14 9 8 8 8 8 8 7 10 10 7 10 11 9 8 9 11 13 10 9 10 10 10 10 12 11 12 12 11 9 8 8 6 5 5 4 4 4 3 3 3 4 4
Wind_Direction
250 244 216 221 193 185 200 187 188 228 227 242 268 288 283 286 305 328 335 342 341 334 324 319 320 315 309 295 298 280 249 236 238 234 228 234 237 239 242 249 246 249 259 262
287 347 233 256 232 214 215 228 253 267 283 256 274 266 287 294 324 338 333 328 325 323 323 315 305 296 299 298 300 291 265 256 250 232 228 231 233 238 240 246 248 248 250 248
269 347 314 290 233 208 182 195 205 226 244 251 297 311 288 300 313 275 297 292 303 305 301 300 292 288 293 293 296 296 275 269 257 247 249 236 231 237 242 244 246 247 249 246
279 352 258 248 295 191 204 203 216 271 256 258 261 266 279 268 240 280 307 320 315 298 303 298 290 293 285 290 287 283 276 272 264 247 247 246 239 241 245 234 236 240 245 245
205 235 291 307 147 141 168 24 190 214 248 186 305 327 310 278 245 282 287 291 283 285 281 290 294 294 298 298 287 281 275 268 259 234 243 238 241 244 241 234 238 235 233 243
140 201 235 227 183 133 92 323 187 143 88 345 347 0 258 303 318 308 303 296 304 307 301 301 300 299 301 293 297 279 273 268 267 247 235 241 238 243 232 217 238 228 246 232
209 273 286 247 250 161 122 212 96 90 15 327 249 215 271 306 305 297 294 309 311 306 301 297 301 308 305 300 287 276 281 278 286 273 255 247 256 234 244 243 243 247 245 250
163 230 278 177 85 208 191 66 109 332 272 279 264 284 298 310 315 321 321 324 321 316 315 310 303 312 308 302 297 296 292 284 279 276 262 259 244 260 245 244 245 253 259 271
194 213 252 281 89 71 96 145 102 274 299 305 303 306 313 313 317 316 312 312 313 312 313 314 305 302 303 300 302 299 305 299 298 297 286 270 258 263 270 240 234 247 238 250
104 16 256 275 32 84 29 88 11 355 335 330 306 310 307 303 311 312 315 315 313 314 314 311 317 309 281 295 302 296 292 290 296 302 303 293 267 242 241 244 245 242 242 253
263 265 92 40 39 17 346 19 357 350 326 312 317 315 304 316 323 325 324 324 325 316 313 309 312 308 301 300 303 299 289 289 294 284 288 296 283 262 248 240 221 231 232 228
242 151 129 163 126 26 54 15 346 346 339 329 290 311 315 317 311 312 316 321 322 321 315 313 314 306 303 301 302 296 296 298 293 300 306 303 304 307 267 261 272 260 258 245
242 262 111 111 97 37 74 10 347 331 291 297 307 267 272 283 280 310 302 298 304 305 302 306 310 307 306 299 304 295 278 287 290 295 283 289 297 296 310 318 291 292 288 287
20 280 118 47 25 333 324 341 318 283 278 283 276 296 307 304 309 302 303 304 302 301 304 305 306 303 307 299 299 293 289 288 287 291 295 299 293 289 285 290 310 308 307 308
43 43 86 148 102 0 337 331 338 332 332 332 305 291 300 302 308 306 302 295 299 298 291 304 307 303 309 306 296 293 292 284 279 277 275 271 270 273 267 272 267 272 304 308
97 81 48 38 331 307 308 339 336 327 327 305 301 305 302 287 290 297 299 290 308 318 315 312 306 301 306 309 301 287 276 274 275 265 270 269 262 266 273 269 273 269 262 254
136 269 283 280 280 319 316 286 261 270 283 279 277 288 296 297 295 292 302 303 289 289 291 290 294 299 300 296 288 288 294 289 259 251 246 248 253 261 261 258 265 268 267 256
280 287 288 272 281 287 293 277 274 271 272 279 289 295 294 292 296 299 302 304 305 301 291 281 279 293 304 295 290 289 280 280 279 270 274 264 257 247 248 254 258 260 268 260
289 286 285 278 267 266 270 278 278 265 277 276 279 283 283 284 286 288 298 299 302 303 304 304 295 303 298 297 301 291 268 272 272 269 264 273 271 255 250 252 258 256 259 263
296 278 275 279 282 251 270 271 268 271 274 274 275 281 285 287 289 288 294 289 281 274 284 290 297 298 292 297 308 304 296 282 279 276 268 254 261 266 256 256 257 258 258 255
273 276 272 269 273 276 265 263 262 270 279 274 268 278 281 283 285 283 292 299 295 295 282 283 282 285 292 297 294 294 291 288 285 282 275 270 265 260 257 256 258 255 258 257
277 276 282 281 270 273 270 264 255 263 265 270 271 266 267 272 278 276 255 250 284 292 293 290 288 282 283 289 291 286 286 280 281 281 274 264 258 257 253 251 254 256 256 255
272 267 270 270 266 269 281 270 268 267 269 269 265 266 259 261 269 278 289 293 283 285 291 291 297 300 301 299 293 281 279 279 276 275 274 268 260 254 253 253 253 256 257 253
266 266 264 269 270 271 276 281 272 263 254 265 261 256 253 268 278 254 252 269 277 284 282 285 291 298 300 296 292 281 273 271 271 272 270 265 257 253 253 255 255 252 248 255
258 266 276 274 271 268 264 269 276 269 264 261 262 264 249 235 228 274 278 278 287 291 280 284 294 302 293 286 294 292 280 274 271 268 262 255 254 250 250 246 247 249 251 250
260 266 274 270 267 274 274 282 271 277 278 276 278 272 272 258 247 256 263 270 273 283 284 288 291 297 288 285 283 284 280 278 269 264 264 261 253 247 247 244 241 244 262 269
262 270 271 273 262 255 256 254 261 269 273 260 267 277 279 277 275 281 279 278 277 279 282 284 284 287 285 287 282 284 277 274 263 265 257 263 261 258 253 245 242 250 260 267